[[{"header":{"parameterUnit":"m.s-1","parameterCategory":1,"la1":30.2991,"la2":30.254,"lo1":-89.0895,"lo2":-89.0444,"dy":0.0017,"dx":0.0017,"nx":28,"ny":28,"refTime":"2025-02-04T09:00:00:Z","depth":0,"parameterNumber":2,"parameterNumberName":"U-component_of_WINDS"},"data":[0,0,0,0,0,0,0,0,0,0,0,0,0,0,0,0,0,0,0,0,0,0,0,0,0,0,0,0,0,0,0,0,0,0,0,0,0,0,0,0,0,0,0,0,0,0,0,0,0,0,0,0,0,0,0,0,0,0,-0.5019,-0.5019,0,-0.5034,-0.5034,-0.5034,-0.5045,-0.5045,-0.5045,-0.5045,-0.5062,-0.5062,-0.5062,0,0,0,0,0,0,0,0,0,0,0,0,0,-0.4999,-0.5,-0.5019,-0.5019,-0.5019,-0.5034,-0.5034,-0.5034,-0.5045,-0.5045,-0.5045,-0.5045,-0.5062,-0.5062,-0.5062,0,0,0,0,0,0,0,0,0,0,0,0,0,-0.5011,-0.5,-0.5019,-0.5026,-0.5027,-0.5034,-0.5034,-0.5034,-0.5045,-0.5045,-0.5045,-0.5045,-0.5061,-0.5062,-0.5062,-0.5063,0,0,-0.5064,-0.5064,0,0,0,0,0,0,0,0,-0.501,-0.5011,-0.5025,-0.5026,-0.5027,-0.5038,-0.5033,-0.5044,-0.5045,-0.5038,-0.5045,-0.5045,-0.5054,-0.5055,-0.5057,-0.5064,-0.5065,-0.5064,-0.5064,-0.5065,-0.5065,0,0,0,0,0,0,0,-0.5009,-0.5011,-0.5025,-0.5025,-0.5026,-0.5029,-0.5031,-0.5035,-0.5045,-0.5039,-0.504,-0.5041,-0.5054,-0.5057,-0.5058,-0.5065,-0.5064,-0.5065,-0.5065,-0.5065,-0.5072,-0.5072,0,0,0,0,0,0,-0.5007,-0.501,-0.5024,-0.5025,-0.5018,-0.5029,-0.5031,-0.5034,-0.5045,-0.5047,-0.5041,-0.5042,-0.5056,-0.5057,-0.5059,-0.506,-0.5065,-0.5065,-0.5066,-0.5072,-0.5072,-0.5072,0,0,0,0,0,0,-0.5007,-0.5008,-0.5024,-0.5018,-0.502,-0.5029,-0.5033,-0.5034,-0.5037,-0.5047,-0.5049,-0.5042,-0.5056,-0.5058,-0.5062,-0.506,-0.5065,-0.5066,-0.5072,-0.5072,-0.5072,-0.5062,0,0,0,0,0,0,-0.5006,-0.5008,-0.5008,-0.5018,-0.502,-0.5027,-0.5033,-0.5035,-0.5038,-0.5039,-0.5048,-0.505,-0.5056,-0.5061,-0.5062,-0.5061,-0.5066,-0.5073,-0.5072,-0.5072,-0.5062,-0.5061,-0.5061,0,0,0,0,0,-0.5005,-0.5005,-0.5008,-0.501,-0.5021,-0.5027,-0.5028,-0.5035,-0.5038,-0.5038,-0.5044,-0.505,-0.506,-0.5061,-0.5063,-0.5062,-0.5073,-0.5072,-0.5072,-0.5063,-0.5062,-0.5061,0,0,0,0,0,0,-0.4996,-0.5007,-0.501,-0.5013,-0.5019,-0.5028,-0.5029,-0.5034,-0.5039,-0.504,-0.5048,-0.505,-0.5053,-0.5058,-0.5059,-0.5063,-0.5067,-0.5067,-0.506,-0.5058,-0.5057,-0.5056,-0.5067,0,0,0,0,0,-0.4995,-0.4998,-0.5007,-0.5009,-0.5012,-0.502,-0.5023,-0.5027,-0.5034,-0.5036,-0.5043,-0.5049,-0.5053,-0.5056,-0.5061,-0.5063,-0.5065,-0.5063,-0.5062,-0.5061,-0.5061,-0.5062,-0.5061,-0.5071,-0.5071,-0.5071,0,0,-0.4992,-0.4998,-0.4999,-0.5007,-0.5012,-0.5016,-0.5022,-0.5025,-0.5028,-0.5037,-0.5041,-0.5046,-0.5053,-0.5056,-0.5057,-0.506,-0.5059,-0.5061,-0.506,-0.5061,-0.5062,-0.5061,-0.506,-0.5071,-0.5071,-0.5071,0,0,-0.4987,-0.4992,-0.4994,-0.4998,-0.5005,-0.5011,-0.5011,-0.502,-0.5023,-0.5027,-0.5033,-0.5037,-0.5045,-0.5049,-0.5053,-0.5049,-0.5054,-0.505,-0.5045,-0.5046,-0.5045,-0.5044,-0.5042,-0.5041,-0.505,-0.505,-0.505,0,-0.4982,-0.4987,-0.4995,-0.4997,-0.5,-0.5008,-0.501,-0.5014,-0.5022,-0.5024,-0.5027,-0.5036,-0.5042,-0.5045,-0.5044,-0.5047,-0.5047,-0.5049,-0.5044,-0.5044,-0.5043,-0.5041,-0.5041,-0.5049,-0.505,-0.505,-0.505,0,-0.4981,-0.4984,-0.4985,-0.4992,-0.4995,-0.4997,-0.5005,-0.5007,-0.5011,-0.5016,-0.502,-0.5026,-0.5032,-0.5034,-0.5038,-0.5038,-0.5039,-0.5043,-0.5047,-0.5042,-0.504,-0.5039,-0.5049,-0.5049,-0.5049,-0.5049,0,0,-0.4972,-0.4982,-0.4982,-0.4985,-0.4993,-0.4996,-0.4998,-0.5003,-0.5005,-0.501,-0.5012,-0.5018,-0.5021,-0.5025,-0.503,-0.5031,-0.5026,-0.5035,-0.5035,-0.5032,-0.5025,-0.5022,-0.5021,-0.503,-0.5029,-0.5029,-0.5024,0,-0.4969,-0.4973,-0.4979,-0.4981,-0.4984,-0.499,-0.4992,-0.4997,-0.5002,-0.5005,-0.501,-0.5014,-0.5018,-0.502,-0.5021,-0.5027,-0.5025,-0.5027,-0.5031,-0.5031,-0.5029,-0.502,-0.5017,-0.5011,-0.5024,-0.5024,-0.5024,0,-0.4966,-0.4969,-0.4972,-0.4978,-0.498,-0.4981,-0.4986,-0.4989,-0.4994,-0.4997,-0.5001,-0.5006,-0.5009,-0.5013,-0.5016,-0.5017,-0.5019,-0.5022,-0.5022,-0.5022,-0.5027,-0.502,-0.501,-0.5009,-0.5023,-0.5023,-0.5023,0,-0.4958,-0.4964,-0.4966,-0.4968,-0.4976,-0.4977,-0.498,-0.4986,-0.4988,-0.4992,-0.4994,-0.4998,-0.5001,-0.5004,-0.501,-0.5013,-0.5013,-0.5018,-0.5015,-0.5015,-0.5015,-0.5015,-0.5005,-0.5017,-0.5017,-0.5017,-0.5017,0,-0.4954,-0.4955,-0.4962,-0.4964,-0.4965,-0.4971,-0.4972,-0.4976,-0.4981,-0.4983,-0.4989,-0.4991,-0.4999,-0.5001,-0.5006,-0.5008,-0.5009,-0.5011,-0.5013,-0.5011,-0.501,-0.5012,-0.5012,-0.5016,-0.5016,-0.5017,-0.5017,0,-0.4946,-0.4951,-0.4953,-0.496,-0.4962,-0.4962,-0.4968,-0.4969,-0.4973,-0.4976,-0.4977,-0.4984,-0.4987,-0.4993,-0.4999,-0.5002,-0.5002,-0.5004,-0.5,-0.5001,-0.4997,-0.4997,-0.4988,-0.4987,-0.5,-0.5,-0.5,0,-0.4942,-0.4943,-0.4949,-0.4951,-0.4953,-0.4956,-0.4958,-0.4964,-0.4966,-0.4972,-0.4972,-0.4976,-0.4979,-0.4983,-0.4989,-0.4993,-0.4995,-0.4992,-0.4996,-0.4993,-0.4994,-0.4994,-0.4994,-0.4991,-0.499,-0.499,-0.499,0,-0.4936,-0.4938,-0.494,-0.4944,-0.4946,-0.4949,-0.4952,-0.4953,-0.496,-0.4962,-0.4965,-0.4967,-0.4972,-0.4975,-0.4979,-0.4983,-0.4987,-0.4989,-0.4988,-0.4986,-0.4983,-0.4984,-0.4997,-0.4989,-0.4989,-0.4989,-0.4989,-0.4989,-0.493,-0.493,-0.4934,-0.4936,-0.4939,-0.4942,-0.4943,-0.4947,-0.495,-0.4953,-0.4957,-0.4959,-0.4964,-0.497,-0.4973,-0.4975,-0.4977,-0.4977,-0.4977,-0.4976,-0.4975,-0.4983,-0.4976,-0.4976,-0.4976,-0.4976,-0.4976,0,-0.4923,-0.4925,-0.4927,-0.4931,-0.4933,-0.4936,-0.494,-0.4941,-0.4943,-0.4947,-0.4949,-0.4952,-0.4955,-0.496,-0.4963,-0.4964,-0.4966,-0.4964,-0.4964,-0.4965,-0.4973,-0.4973,-0.4962,-0.4962,-0.4962,-0.4962,-0.4962,-0.4962,-0.4919,-0.492,-0.4922,-0.4924,-0.4927,-0.4929,-0.493,-0.4933,-0.4935,-0.4938,-0.494,-0.4943,-0.4947,-0.4951,-0.4953,-0.4955,-0.4956,-0.4953,-0.4955,-0.4963,-0.4964,-0.4965,-0.4965,-0.4953,-0.4953,-0.4947,-0.4946,-0.4946]},{"header":{"parameterUnit":"m.s-1","parameterCategory":1,"la1":30.2991,"la2":30.254,"lo1":-89.0895,"lo2":-89.0444,"dy":0.0017,"dx":0.0017,"nx":28,"ny":28,"refTime":"2025-02-04T09:00:00:Z","depth":0,"parameterNumber":3,"parameterNumberName":"V-component_of_WINDS"},"data":[0,0,0,0,0,0,0,0,0,0,0,0,0,0,0,0,0,0,0,0,0,0,0,0,0,0,0,0,0,0,0,0,0,0,0,0,0,0,0,0,0,0,0,0,0,0,0,0,0,0,0,0,0,0,0,0,0,0,1.0236,1.0236,0,1.0215,1.0215,1.0215,1.0181,1.0181,1.018,1.0179,1.016,1.016,1.0161,0,0,0,0,0,0,0,0,0,0,0,0,0,1.025,1.025,1.0236,1.0236,1.0236,1.0215,1.0215,1.0215,1.0181,1.0181,1.018,1.0179,1.016,1.016,1.0161,0,0,0,0,0,0,0,0,0,0,0,0,0,1.0238,1.025,1.0236,1.0217,1.0215,1.0215,1.0215,1.0215,1.0181,1.0181,1.018,1.0179,1.016,1.016,1.0161,1.018,0,0,1.0161,1.0161,0,0,0,0,0,0,0,0,1.0239,1.0238,1.022,1.0218,1.0216,1.02,1.0213,1.0203,1.0182,1.0194,1.0179,1.0178,1.0174,1.0173,1.0171,1.0179,1.0178,1.0161,1.0161,1.0161,1.0161,0,0,0,0,0,0,0,1.024,1.0238,1.0228,1.022,1.0217,1.0209,1.0207,1.0211,1.019,1.0193,1.0191,1.0188,1.0173,1.0171,1.0171,1.0178,1.0161,1.0161,1.0161,1.0161,1.0199,1.02,0,0,0,0,0,0,1.0243,1.0239,1.0229,1.0227,1.0225,1.021,1.0207,1.0206,1.019,1.0186,1.0189,1.0187,1.0172,1.0171,1.017,1.0191,1.0161,1.0161,1.0161,1.0198,1.0199,1.02,0,0,0,0,0,0,1.0243,1.0242,1.023,1.0233,1.023,1.0211,1.021,1.0206,1.0204,1.0187,1.0183,1.0191,1.0171,1.017,1.0177,1.019,1.0161,1.0161,1.0197,1.0199,1.02,1.0234,0,0,0,0,0,0,1.0244,1.0243,1.0249,1.0233,1.023,1.0237,1.0211,1.0206,1.0204,1.0201,1.0188,1.0184,1.017,1.0177,1.0177,1.019,1.0161,1.0196,1.0198,1.0199,1.0232,1.0237,1.0241,0,0,0,0,0,1.0245,1.0261,1.025,1.0249,1.0238,1.0238,1.0236,1.0219,1.0205,1.0212,1.0201,1.0185,1.0188,1.0178,1.0178,1.0191,1.0195,1.0197,1.0199,1.023,1.0236,1.024,0,0,0,0,0,0,1.028,1.0258,1.0246,1.0257,1.0249,1.0232,1.024,1.0225,1.0222,1.0219,1.0198,1.0195,1.0206,1.0199,1.0188,1.0208,1.0189,1.0191,1.0213,1.0218,1.0222,1.0224,1.0161,0,0,0,0,0,1.0289,1.029,1.0271,1.0282,1.0279,1.026,1.0259,1.0246,1.0238,1.0235,1.0224,1.0217,1.0216,1.0217,1.0215,1.023,1.0227,1.0239,1.0243,1.0247,1.0249,1.0257,1.0262,1.0207,1.0207,1.0207,0,0,1.0308,1.0296,1.0298,1.0289,1.0282,1.0283,1.0258,1.0261,1.0262,1.0235,1.0241,1.0233,1.0224,1.0235,1.024,1.023,1.0264,1.025,1.0253,1.0253,1.026,1.0265,1.027,1.0209,1.0209,1.0208,0,0,1.0344,1.0335,1.0343,1.0336,1.0324,1.0311,1.0313,1.0298,1.0291,1.0296,1.0276,1.0278,1.0277,1.0272,1.0269,1.0301,1.0286,1.0301,1.0325,1.0332,1.0337,1.034,1.0352,1.0357,1.0303,1.0303,1.0303,0,1.037,1.0371,1.035,1.0354,1.0351,1.0325,1.0334,1.0328,1.0317,1.0316,1.0304,1.0303,1.0295,1.0304,1.0312,1.031,1.0313,1.0303,1.0337,1.0341,1.0344,1.0356,1.036,1.0305,1.0305,1.0305,1.0305,0,1.0403,1.0404,1.0412,1.0401,1.0398,1.0405,1.0386,1.0386,1.0372,1.0361,1.0367,1.0356,1.0352,1.0353,1.0341,1.0361,1.0355,1.0341,1.0322,1.0352,1.0362,1.0366,1.0308,1.0307,1.0307,1.0306,0,0,1.0462,1.0438,1.0441,1.0436,1.042,1.0421,1.0427,1.0421,1.0422,1.0415,1.042,1.0419,1.0405,1.0402,1.0389,1.0395,1.0422,1.038,1.0379,1.0389,1.0444,1.0456,1.0461,1.0412,1.0412,1.0413,1.0445,0,1.0495,1.0502,1.0483,1.0495,1.0496,1.0471,1.0476,1.0467,1.0456,1.0456,1.0444,1.0444,1.0426,1.0424,1.0429,1.0418,1.0433,1.0415,1.0417,1.0417,1.0421,1.0466,1.0479,1.051,1.0449,1.045,1.045,0,1.0536,1.0529,1.0541,1.0525,1.0524,1.0529,1.0522,1.0522,1.0512,1.0503,1.0499,1.0483,1.0487,1.0468,1.0474,1.0462,1.0462,1.0456,1.0457,1.0457,1.0436,1.0469,1.052,1.0525,1.0456,1.0456,1.0455,0,1.0579,1.0573,1.058,1.0575,1.0556,1.056,1.0552,1.054,1.0538,1.0533,1.0531,1.0527,1.0525,1.0522,1.0505,1.0492,1.0514,1.0493,1.0508,1.0508,1.0515,1.0515,1.0567,1.0513,1.0512,1.0512,1.0512,0,1.0619,1.0628,1.0599,1.0603,1.0611,1.0589,1.0599,1.0588,1.0578,1.058,1.0558,1.0561,1.0538,1.0538,1.0525,1.0533,1.0532,1.0526,1.0523,1.0529,1.053,1.0529,1.0527,1.0514,1.0513,1.0513,1.0513,0,1.0669,1.065,1.0656,1.0636,1.0631,1.0639,1.0622,1.0625,1.0612,1.0615,1.0615,1.0595,1.0594,1.0576,1.0572,1.0563,1.0577,1.0569,1.058,1.0578,1.0594,1.0594,1.0649,1.0655,1.0596,1.0597,1.0597,0,1.0697,1.0703,1.0683,1.0682,1.0675,1.0674,1.0672,1.0649,1.0648,1.0636,1.0641,1.0638,1.0634,1.0634,1.062,1.0617,1.0609,1.0628,1.0609,1.0614,1.061,1.0611,1.0612,1.0633,1.0634,1.0635,1.0635,0,1.0748,1.0738,1.0734,1.0727,1.0724,1.0718,1.0711,1.0711,1.0687,1.0686,1.0684,1.0682,1.0676,1.0674,1.0668,1.066,1.0644,1.0641,1.0645,1.0652,1.0658,1.0656,1.0593,1.0641,1.064,1.064,1.0639,1.0639,1.0789,1.0792,1.0779,1.0776,1.0767,1.076,1.0762,1.0749,1.0746,1.074,1.0727,1.0727,1.0716,1.0706,1.07,1.07,1.069,1.0695,1.0697,1.0698,1.0702,1.0657,1.0699,1.0698,1.0698,1.0698,1.0698,0,1.084,1.0829,1.0826,1.0815,1.0813,1.0795,1.0786,1.0785,1.0785,1.0776,1.0772,1.077,1.0767,1.0752,1.0748,1.0751,1.0744,1.0751,1.0751,1.075,1.0711,1.0708,1.0757,1.0757,1.0757,1.0757,1.0757,1.0757,1.0866,1.0871,1.0859,1.086,1.085,1.0849,1.0845,1.0839,1.0831,1.0829,1.0826,1.0816,1.0804,1.0799,1.0796,1.0791,1.0791,1.0801,1.0795,1.0758,1.0753,1.0747,1.0745,1.0801,1.0801,1.0834,1.0835,1.0835]}]]